Temperature
11 11 11 11 11 11 11 11 11 11 11 11 11 10 10 10 10 10 10 10 10 10 9 9 9 9 9 9 9 9 9 9 9 9 9 9 9 9 9 9 9 9 9
11 11 11 11 11 11 11 11 11 10 10 10 10 10 10 10 10 10 10 10 10 10 9 9 9 9 9 9 9 9 9 9 9 9 9 9 9 9 9 9 8 8 8
10 10 10 10 10 10 10 10 10 10 10 10 10 10 10 10 9 9 9 9 9 9 9 9 9 9 8 8 8 9 9 9 8 9 9 9 8 8 8 8 8 8 8
10 10 10 10 10 10 10 10 10 10 9 9 9 9 9 9 9 9 9 9 9 9 9 9 8 8 8 8 8 8 8 8 8 8 8 8 8 8 8 8 8 8 8
9 9 9 9 9 9 9 9 9 9 9 9 9 9 9 9 9 9 9 9 8 8 8 8 8 8 8 8 8 8 8 8 8 8 8 8 8 7 7 7 7 7 7
9 9 9 9 9 9 9 9 9 9 8 8 8 8 8 8 8 8 8 8 8 8 8 8 8 8 8 7 8 7 7 8 8 7 7 7 7 7 7 7 7 7 7
8 8 8 8 8 8 8 8 8 8 8 7 7 7 8 8 8 8 8 8 8 8 8 7 7 7 7 7 7 7 7 7 7 7 7 7 7 6 6 6 6 6 6
8 8 8 8 8 8 8 8 8 7 7 7 7 6 6 6 7 7 7 7 7 7 7 7 7 7 7 7 7 7 7 7 7 6 6 6 6 6 6 6 6 6 6
7 7 7 7 7 7 7 7 7 7 7 7 6 6 6 6 6 6 6 6 7 7 7 7 6 6 6 6 7 7 6 6 6 6 6 6 6 6 6 6 5 5 5
6 6 7 7 7 7 7 7 7 7 6 6 6 6 6 6 6 5 6 6 6 6 6 6 6 6 6 6 6 6 6 6 6 6 6 6 6 5 5 5 5 5 5
6 6 6 6 6 7 7 6 6 6 6 6 6 6 6 6 6 6 5 5 6 6 6 6 6 6 6 6 6 6 6 5 6 5 5 5 5 5 5 5 5 5 5
5 5 6 6 6 6 6 6 6 6 6 6 6 6 5 5 6 6 5 5 5 5 5 5 5 5 5 5 5 5 5 5 5 5 5 5 5 5 5 5 4 4 4
5 5 5 5 5 5 6 5 5 5 5 5 5 5 5 5 5 5 5 5 4 4 4 5 5 5 5 5 5 5 5 5 5 5 5 5 4 4 4 4 4 4 4
4 4 4 4 5 5 5 5 5 5 5 5 5 5 5 5 5 5 5 4 4 3 4 4 4 4 4 4 5 4 4 4 4 4 4 4 4 4 4 4 4 4 4
4 4 4 4 4 4 4 4 4 4 4 4 4 4 4 4 4 4 4 4 4 3 3 4 4 4 4 4 4 4 4 4 4 4 4 4 4 4 4 3 3 3 3
3 3 4 4 4 4 4 4 4 4 4 3 3 3 3 3 3 4 3 3 3 3 3 3 3 3 3 3 3 3 4 4 4 4 3 3 3 3 3 3 3 3 3
3 3 3 3 3 3 3 3 3 3 3 3 3 3 3 3 3 3 3 3 3 3 3 3 3 3 3 3 3 3 3 3 3 3 3 3 3 3 3 3 2 2 2
3 2 3 3 3 3 3 3 3 3 3 2 2 2 2 2 2 2 2 2 2 2 2 2 2 2 2 2 2 3 3 3 3 3 3 2 2 2 2 2 2 2 1
2 2 2 2 2 3 2 2 2 2 2 2 2 2 2 2 2 2 2 2 2 2 2 2 2 2 2 2 2 2 2 2 2 2 2 2 2 2 1 1 1 1 1
2 2 2 2 2 2 2 2 2 2 1 1 1 1 1 1 1 1 2 2 2 2 1 1 1 1 1 1 1 1 2 2 2 1 1 1 1 1 1 1 1 1 1
1 1 1 1 1 2 2 2 1 1 1 1 1 0 1 1 1 1 1 1 1 1 1 1 1 1 1 1 1 1 1 1 1 1 1 1 1 1 1 1 0 0 0
1 1 1 1 1 1 1 1 1 0 0 0 0 0 0 0 0 1 1 1 1 1 1 0 0 -0 -0 0 0 0 0 0 -0 0 -0 0 -0 -0 0 -0 -0 -0 -0
0 0 0 0 0 1 0 0 -0 -0 -0 -0 -0 -0 -0 -0 0 0 0 0 0 -0 -0 -0 -0 -0 -0 -0 -0 -0 -0 -0 -1 -1 -1 -1 -0 -0 -0 -1 -1 -1 -1
-0 -1 -0 -0 -0 -0 -0 -0 -1 -1 -1 -1 -1 -1 -1 -1 -1 -0 -0 -0 -0 -0 -1 -1 -1 -1 -1 -1 -1 -0 -1 -1 -1 -1 -1 -1 -1 -1 -1 -1 -1 -1 -1
-1 -1 -1 -1 -1 -1 -1 -1 -1 -1 -1 -1 -1 -1 -1 -1 -1 -1 -1 -1 -1 -1 -1 -1 -1 -1 -1 -1 -1 -1 -1 -1 -1 -1 -1 -2 -2 -2 -1 -1 -2 -2 -2
-2 -2 -2 -2 -2 -2 -2 -2 -2 -2 -2 -2 -2 -2 -2 -2 -1 -1 -1 -1 -1 -1 -1 -1 -1 -1 -1 -1 -1 -1 -2 -2 -2 -2 -2 -2 -2 -3 -3 -2 -2 -2 -2
Wind_Speed
2 1 1 1 2 2 2 2 2 3 3 3 4 4 3 4 5 6 6 8 9 9 8 8 8 8 7 7 6 6 6 6 6 6 6 7 7 7 7 8 8 9 9
2 2 2 2 2 3 3 3 3 2 2 2 3 3 4 4 4 5 6 8 9 9 9 9 9 8 8 8 7 7 6 7 6 6 6 7 7 7 7 8 8 9 10
3 2 3 3 3 3 4 3 3 2 2 1 2 3 3 4 4 5 5 6 7 8 9 9 9 9 9 8 7 7 7 7 6 6 7 7 7 8 8 9 9 10 10
3 3 3 3 3 3 3 3 3 2 2 2 2 3 2 2 4 5 5 5 5 5 7 8 8 8 8 8 8 8 8 7 7 7 7 7 7 8 8 9 10 10 11
3 3 3 3 3 2 3 3 3 2 2 2 2 3 2 2 3 4 4 5 6 6 6 7 7 7 7 8 8 8 8 8 7 8 7 7 7 8 9 10 10 10 11
3 2 3 3 3 3 3 3 3 2 2 2 2 2 3 3 3 3 4 4 5 6 6 6 5 6 8 8 8 9 9 9 8 8 8 8 8 9 9 10 10 11 11
3 2 2 3 3 4 4 4 2 2 2 1 1 2 3 3 3 3 3 3 3 4 5 6 5 5 5 7 8 9 9 9 8 8 8 8 8 9 9 10 10 10 11
3 2 2 3 3 3 4 4 2 2 1 2 1 1 1 2 2 2 2 3 3 2 3 4 4 4 3 3 5 7 9 9 9 9 9 9 9 10 10 10 10 10 11
3 3 3 3 3 3 4 4 5 4 3 3 2 2 2 3 2 3 3 3 3 2 3 3 4 4 3 3 3 6 8 9 10 9 9 9 10 10 11 10 10 10 11
4 3 3 2 3 3 4 4 4 3 5 4 2 2 3 2 2 2 2 2 3 3 3 3 3 4 4 3 4 5 7 9 10 10 9 10 10 11 11 10 10 10 11
3 3 3 2 3 3 3 3 3 3 3 4 3 2 2 2 2 3 4 3 3 3 3 3 3 3 4 4 4 5 7 9 9 10 10 10 10 11 11 10 10 10 11
2 3 3 2 3 3 4 4 3 4 4 4 3 3 3 3 3 3 4 4 4 3 3 3 3 3 4 4 4 6 7 8 9 9 10 10 10 11 11 10 10 10 11
2 3 3 2 2 3 3 3 3 4 4 4 4 3 3 3 3 3 3 3 3 3 3 3 3 2 3 3 4 6 7 8 8 9 9 9 10 10 10 9 9 10 11
3 3 3 2 3 3 3 2 3 3 3 3 4 3 3 3 3 3 3 3 3 3 3 4 2 2 2 3 4 5 6 7 8 8 8 8 8 8 8 9 9 10 11
2 3 3 2 2 2 2 2 2 3 3 3 3 3 3 3 3 3 3 4 4 4 5 4 2 2 2 2 3 4 4 6 7 7 7 7 7 7 7 8 9 9 10
3 3 3 2 2 2 2 2 2 2 2 2 2 2 2 2 2 2 3 3 3 4 5 3 3 2 1 2 3 3 4 6 5 5 6 6 6 6 7 8 8 9 10
3 3 3 2 2 2 2 2 2 2 2 2 2 2 2 2 2 2 2 2 2 3 4 3 1 1 1 1 2 2 3 3 3 4 5 5 6 6 7 7 8 9 10
3 3 3 2 3 2 2 2 2 2 2 2 2 2 2 2 2 2 2 2 2 2 3 3 2 1 1 2 2 2 2 2 2 4 5 5 6 6 6 7 9 9 9
3 3 3 2 2 2 2 2 2 2 2 2 2 1 2 1 2 2 2 1 1 1 2 2 2 1 1 2 1 1 1 1 2 4 4 5 5 5 6 8 8 9 9
3 3 3 2 2 2 2 1 1 1 1 1 1 1 1 1 2 2 1 1 1 1 1 1 1 1 1 1 0 1 1 1 2 3 4 4 5 6 7 7 7 8 9
2 2 2 2 1 1 1 2 2 2 1 0 0 1 1 1 2 2 1 1 1 1 1 1 1 1 1 1 1 1 1 1 1 1 1 2 3 4 5 6 6 7 8
1 1 1 2 2 1 1 1 2 2 2 1 0 1 1 2 2 3 3 2 1 1 1 1 1 2 2 1 1 1 1 1 2 1 1 3 2 3 4 4 6 7 8
1 1 1 1 1 1 1 1 2 2 2 1 1 1 1 2 3 2 3 3 2 1 1 1 1 2 2 2 1 1 1 1 2 2 2 3 2 3 4 5 6 7 9
0 0 1 1 0 1 1 1 3 2 2 1 1 0 0 1 1 2 2 3 3 2 1 1 1 1 1 0 0 0 1 1 1 2 1 2 3 3 4 4 6 7 8
0 0 0 0 0 0 0 2 3 3 2 1 1 1 1 1 1 2 2 2 3 3 3 3 2 2 2 2 2 1 0 0 1 2 1 0 2 3 3 3 5 7 9
1 1 1 1 1 1 1 1 2 2 2 1 1 1 1 2 2 2 1 1 1 2 2 3 3 4 3 3 3 1 1 1 1 1 1 1 2 3 3 2 2 4 6
Wind_Direction
196 210 218 217 220 205 198 197 205 222 232 234 232 221 217 218 215 214 217 223 225 228 233 235 237 236 237 240 243 242 245 255 259 260 267 274 274 274 275 282 275 269 268
215 205 201 209 226 220 213 208 207 218 234 234 232 227 221 217 219 217 219 223 224 228 234 237 236 237 239 242 244 246 247 254 262 266 273 281 284 282 282 286 284 277 273
234 218 202 206 223 225 215 211 215 210 228 253 254 248 233 221 219 217 216 218 221 228 234 239 240 242 244 244 246 254 252 256 263 268 272 278 285 288 290 294 294 288 282
249 223 213 223 230 216 206 198 200 215 237 246 259 259 262 246 234 219 210 209 212 219 229 232 236 245 247 248 254 258 256 254 263 268 270 274 282 286 288 295 296 295 289
260 233 221 237 229 210 204 209 210 207 229 244 260 268 262 247 251 238 224 214 210 211 215 223 232 239 249 254 260 261 263 256 260 264 269 274 280 284 288 291 294 294 293
276 256 237 225 217 203 213 215 213 215 218 225 269 298 292 274 252 243 235 222 210 210 207 210 216 230 245 257 264 266 269 260 259 263 269 273 278 283 287 291 294 295 295
278 266 259 229 215 208 214 216 215 206 221 197 330 327 316 294 263 252 236 229 228 213 203 208 211 218 233 248 261 269 273 270 263 264 266 272 279 282 285 288 292 294 296
280 277 250 234 224 216 212 210 196 206 243 200 198 301 296 305 294 272 255 239 240 225 217 217 212 213 223 244 267 271 274 277 269 267 267 271 276 278 281 285 288 292 295
279 268 256 246 233 218 216 215 203 203 221 241 209 196 213 239 292 282 261 251 246 247 243 226 214 213 224 232 248 264 270 279 277 273 275 278 279 279 281 284 286 291 295
269 270 261 252 236 233 227 221 212 227 205 222 248 247 241 233 240 278 286 279 270 251 243 237 221 218 219 229 243 254 265 277 276 277 279 281 282 282 281 283 286 293 300
269 278 271 249 236 236 233 227 227 227 218 222 231 250 265 277 250 236 266 279 285 267 249 235 224 217 221 228 242 253 264 272 272 276 277 279 282 285 284 286 291 298 302
280 281 288 261 243 235 233 226 223 225 227 227 232 234 240 240 241 232 247 258 269 276 269 250 234 222 216 223 245 262 268 269 268 272 275 278 282 287 289 288 294 300 303
279 275 274 268 262 257 244 228 223 231 226 223 230 241 247 255 249 237 237 252 263 277 275 262 242 228 220 224 251 267 273 273 269 273 278 282 286 290 293 295 299 302 305
253 253 261 265 274 271 261 234 223 233 228 229 238 240 249 255 246 237 227 224 259 271 264 256 249 234 220 232 252 265 270 272 274 278 281 285 289 292 296 303 305 307 309
254 249 251 247 256 261 255 241 234 236 234 237 243 247 253 259 251 244 232 214 219 248 258 247 231 232 235 244 260 274 269 274 274 276 282 286 291 297 304 308 311 314 316
243 254 254 240 248 256 252 248 246 238 232 243 243 249 267 270 263 248 238 231 222 227 246 242 233 243 245 288 282 278 265 276 270 278 284 291 298 306 310 313 319 320 320
244 249 241 235 247 258 254 247 251 239 227 250 259 248 267 277 268 265 258 238 229 220 243 265 253 277 255 269 295 287 278 275 274 290 301 305 311 313 314 319 321 322 322
247 238 237 237 250 256 249 242 241 241 223 234 251 260 275 289 287 281 263 245 232 219 219 242 262 270 255 251 257 258 285 289 301 310 308 308 311 314 322 328 331 329 328
228 237 240 235 249 252 252 244 216 229 227 227 232 246 269 278 285 293 291 268 222 214 200 217 255 271 278 268 270 281 296 318 328 327 322 311 316 322 327 328 328 331 333
221 237 246 235 240 245 241 214 172 185 208 233 247 253 268 251 256 274 277 241 187 170 192 216 252 274 286 297 238 283 320 346 326 337 327 316 325 327 324 325 330 336 336
243 239 243 246 240 228 210 153 154 162 156 123 357 310 289 317 304 288 271 208 175 175 193 226 271 305 295 283 285 294 301 337 331 324 331 321 327 324 327 325 333 338 336
246 236 228 237 245 260 238 184 144 147 139 136 69 0 343 348 342 334 329 329 245 186 188 216 281 265 269 268 298 289 319 341 323 359 0 312 326 313 319 327 333 340 344
237 231 236 234 243 244 254 184 128 118 126 128 117 30 349 356 3 6 359 8 7 1 299 269 238 260 262 260 240 358 336 307 284 301 338 311 321 306 311 331 335 340 345
190 215 235 223 277 250 257 139 107 96 107 99 103 151 80 343 352 17 36 28 18 16 3 17 193 259 275 229 189 205 234 327 312 313 323 293 313 311 320 332 337 342 345
48 2 28 47 49 248 107 96 86 109 105 89 55 52 55 19 336 359 45 47 23 14 19 36 36 29 12 5 14 63 57 4 320 317 335 315 316 325 324 324 338 349 350
90 45 24 13 35 141 99 76 79 117 114 93 46 24 21 11 349 348 39 78 37 1 19 32 39 31 28 28 12 14 227 243 270 299 321 340 315 338 331 322 329 342 346
Height
1501 1502 1503 1504 1504 1505 1505 1505 1506 1506 1506 1507 1507 1507 1507 1507 1507 1507 1507 1507 1507 1506 1506 1507 1506 1506 1506 1506 1505 1505 1504 1504 1503 1503 1503 1503 1502 1502 1501 1500 1500 1499 1499
1498 1499 1499 1500 1501 1502 1502 1502 1503 1503 1503 1503 1503 1504 1504 1504 1504 1504 1503 1503 1503 1503 1503 1503 1503 1503 1503 1503 1502 1502 1501 1501 1501 1500 1500 1500 1499 1498 1498 1497 1496 1496 1495
1495 1495 1496 1497 1497 1498 1499 1499 1500 1500 1500 1500 1500 1500 1500 1500 1500 1500 1500 1499 1499 1499 1499 1499 1499 1500 1499 1499 1499 1498 1498 1497 1497 1497 1496 1496 1495 1495 1494 1494 1493 1492 1492
1492 1492 1492 1493 1494 1494 1495 1495 1495 1496 1496 1496 1496 1496 1496 1496 1496 1496 1496 1495 1495 1495 1495 1495 1495 1496 1495 1495 1495 1495 1494 1494 1493 1493 1493 1492 1492 1491 1491 1490 1489 1488 1488
1489 1489 1489 1489 1490 1490 1491 1491 1491 1492 1491 1492 1492 1492 1492 1492 1491 1492 1491 1491 1491 1491 1491 1491 1491 1491 1491 1491 1491 1491 1490 1490 1489 1489 1489 1489 1488 1487 1487 1486 1485 1484 1484
1485 1485 1485 1485 1486 1486 1486 1487 1487 1487 1488 1488 1488 1488 1488 1487 1487 1487 1487 1487 1487 1487 1487 1487 1487 1487 1487 1487 1487 1487 1486 1486 1485 1485 1485 1485 1484 1483 1483 1482 1481 1480 1479
1481 1481 1481 1481 1481 1481 1482 1482 1483 1483 1484 1484 1484 1483 1483 1483 1482 1482 1483 1482 1482 1482 1482 1482 1482 1483 1482 1482 1483 1482 1482 1482 1481 1481 1481 1480 1480 1479 1479 1478 1477 1476 1475
1476 1476 1476 1476 1476 1476 1477 1477 1478 1478 1479 1480 1480 1480 1478 1478 1477 1478 1478 1478 1478 1478 1478 1478 1478 1478 1478 1478 1478 1478 1477 1477 1477 1477 1477 1476 1476 1475 1475 1474 1473 1472 1471
1472 1472 1472 1472 1472 1472 1472 1473 1474 1474 1474 1476 1477 1477 1476 1473 1473 1472 1472 1473 1473 1473 1473 1473 1473 1473 1473 1473 1473 1473 1473 1472 1472 1472 1472 1472 1471 1471 1470 1469 1468 1467 1466
1468 1467 1467 1467 1467 1467 1467 1468 1469 1470 1470 1470 1471 1472 1472 1471 1470 1468 1468 1468 1468 1468 1468 1468 1468 1468 1468 1468 1468 1468 1468 1468 1468 1467 1467 1467 1467 1466 1466 1464 1464 1463 1462
1463 1463 1462 1462 1463 1463 1463 1464 1464 1465 1465 1465 1465 1466 1466 1466 1465 1465 1462 1462 1463 1463 1463 1463 1463 1463 1463 1463 1464 1463 1463 1463 1463 1463 1463 1463 1462 1462 1461 1460 1459 1458 1457
1458 1458 1458 1458 1458 1459 1459 1459 1459 1460 1460 1460 1460 1461 1461 1461 1460 1460 1458 1457 1457 1458 1458 1458 1458 1458 1458 1458 1458 1459 1458 1458 1458 1458 1458 1458 1457 1457 1456 1455 1454 1453 1452
1453 1453 1454 1454 1454 1454 1454 1454 1454 1455 1455 1455 1455 1456 1456 1456 1457 1456 1455 1454 1453 1453 1453 1453 1453 1454 1454 1454 1453 1453 1453 1453 1453 1453 1453 1453 1452 1452 1451 1450 1449 1448 1448
1449 1450 1449 1449 1449 1449 1449 1449 1450 1450 1451 1451 1451 1452 1451 1451 1452 1451 1451 1451 1449 1449 1449 1448 1448 1449 1449 1449 1449 1449 1449 1449 1448 1449 1449 1448 1448 1447 1446 1446 1445 1444 1443
1446 1446 1446 1445 1445 1445 1445 1446 1445 1446 1446 1446 1447 1447 1447 1447 1447 1447 1447 1447 1447 1445 1444 1444 1444 1444 1445 1445 1444 1444 1444 1444 1444 1444 1444 1444 1444 1443 1442 1441 1440 1440 1439
1442 1442 1442 1442 1441 1441 1442 1441 1441 1441 1442 1442 1442 1442 1442 1442 1442 1442 1442 1441 1441 1441 1440 1440 1440 1440 1440 1440 1440 1440 1440 1440 1440 1440 1440 1440 1439 1438 1438 1437 1436 1435 1435
1438 1438 1438 1437 1437 1437 1438 1438 1438 1437 1438 1438 1439 1439 1439 1438 1438 1438 1437 1436 1436 1437 1436 1436 1436 1436 1436 1436 1436 1436 1436 1436 1436 1436 1436 1436 1435 1434 1433 1433 1432 1431 1431
1433 1434 1434 1434 1434 1434 1434 1434 1434 1434 1434 1434 1435 1435 1435 1435 1434 1434 1433 1432 1431 1431 1432 1431 1432 1432 1432 1432 1432 1432 1432 1432 1432 1432 1432 1432 1432 1431 1430 1429 1428 1427 1426
1429 1430 1430 1430 1430 1431 1431 1431 1431 1431 1431 1432 1432 1432 1431 1431 1430 1430 1429 1428 1427 1427 1428 1428 1428 1428 1428 1428 1428 1429 1429 1429 1429 1429 1429 1429 1428 1428 1426 1425 1424 1424 1422
1426 1427 1427 1426 1427 1428 1428 1428 1428 1428 1428 1428 1429 1429 1428 1428 1428 1427 1426 1425 1425 1424 1425 1425 1425 1425 1425 1424 1425 1425 1425 1425 1425 1426 1426 1426 1426 1425 1424 1422 1421 1420 1419
1423 1423 1423 1424 1424 1424 1425 1425 1425 1425 1425 1425 1426 1426 1426 1425 1425 1425 1424 1423 1423 1422 1422 1422 1422 1422 1422 1421 1422 1422 1422 1421 1422 1423 1423 1423 1422 1421 1420 1420 1419 1417 1416
1420 1420 1420 1421 1421 1421 1422 1423 1423 1423 1423 1423 1423 1423 1423 1423 1423 1422 1422 1421 1421 1421 1420 1420 1420 1420 1419 1419 1420 1420 1419 1418 1419 1421 1420 1419 1419 1418 1418 1417 1416 1414 1413
1417 1417 1418 1419 1419 1419 1420 1420 1420 1421 1421 1421 1421 1421 1421 1420 1420 1420 1419 1419 1419 1419 1420 1420 1419 1418 1417 1418 1417 1417 1417 1418 1417 1418 1417 1415 1416 1415 1415 1414 1413 1411 1410
1416 1416 1416 1417 1416 1417 1418 1418 1419 1419 1419 1419 1420 1419 1419 1419 1418 1418 1417 1417 1417 1417 1418 1418 1418 1417 1417 1417 1417 1416 1416 1416 1416 1417 1416 1413 1412 1412 1411 1410 1409 1408 1407
1414 1415 1415 1415 1415 1415 1416 1417 1417 1417 1417 1418 1418 1418 1418 1417 1417 1417 1416 1416 1416 1415 1416 1416 1416 1416 1416 1416 1416 1415 1415 1415 1413 1413 1414 1412 1410 1408 1407 1407 1406 1405 1404
1413 1413 1413 1414 1414 1414 1415 1415 1416 1416 1416 1416 1416 1417 1417 1416 1416 1415 1415 1415 1414 1414 1414 1415 1415 1415 1415 1415 1415 1414 1413 1413 1412 1411 1411 1410 1408 1407 1405 1404 1404 1403 1401